STARLINK-35902, 66626

Orbit data source: Space-Track

STARLINK-35902, 66626 is a payload satellite owned by SpaceX/Seattle (US) in LEO that was launched on Sun, 23 Nov 2025 UTC via an FALCON 9 launch vehicle from the Air Force Western Test Range (AFWTR). Payload-class satellites include a variety of spacecraft equipped with specific instruments for various scientific and technological missions. These include communications satellites like Starlink; space stations such as the ISS; scientific satellites like the Hubble; Earth observation satellites from companies like Planet Labs, Umbra, and HawkEye 360; GPS; miniature CubeSats for education and research; and military/defense satellites.

Loading next visibility...
Identifier
66626, 2025-271K
Orbit
LEO
Country
Flag of USUS
Related business
Manufacturer
SpaceX/Seattle
Mission
Operational Commercial Communications
Bus & Motor
STARLINK V2MO, Unknown motor
Mass
575 kg wet, ~530 kg dry
Launch date (UTC)
2025-11-23 (2 months ago)
Launch vehicle
FALCON 9
Launch site
Air Force Western Test Range (AFWTR)
Object type
Payload
Rocket body
Debris
Shape & HBR
Box + 2 Pan, 17.7 m
Radar Cross Section
36.964 m²

Expand to show TLE details & history
Last TLE update: 10 hours ago

TLE from 10 hours ago
0 STARLINK-35902
1 66626U 25271K   26036.95165350  .00030218  00000-0  10286-2 0  9997
2 66626  53.1587 287.6278 0001345  24.1760 335.9304 15.30189536 12708
Epoch: 2026-02-05T22:50Z
TLE epoch observation values (Epoch: 2026-02-05T22:50:22.862Z)
Latitude
0.00001°
Longitude
168.93604°
Altitude
475.304 km
Speed
7.63 km/s
True Right ascension
19h 10m 30s
True Declination
0° 00' 00"
Sunlit
Object was in daylight at epoch
Visualization orbit readout
Latitude
Unknown
Longitude
Unknown
Altitude
Unknown
Speed
Unknown
Apparent Right ascension
Unknown
Apparent Declination
Unknown
Sunlit
N/A
Visualization observer readout
Local Sidereal Time
10:36:31
Azimuth
Unknown
Elevation
Unknown
Doppler factor
Unknown
Orbital elements
Apogee altitude
476.425 km
Perigee altitude
474.581 km
Semi-major axis
6,853.64 km
Eccentricity
0.00013
Inclination
53.1587°
RAAN
287.6278°
Arg. of periapsis
24.176°
True anomaly
335.92411°
Mean anomaly
335.9304°
Eccentric anomaly
335.92726°
Mean motion
3.82526 °/min
Orbital period
94.11 mins
BSTAR
0.0010286
Loading maneuver chart data...
Computing Atmospheric mass density...
Loading historical data...
Loading historical data...
Loading historical data...
Loading historical data...
Loading historical data...
Loading historical data...
Loading historical data...

Documentation

Showing up to 5 results
|